Regional Weather Roundup
Issued by NWS

Home | Current Version | Previous Version | Text Only | Print | Product List | Glossary On
Versions: 1 2 3 4 5 6 7 8 9 10 11 12 13 14 15 16 17 18 19 20 21 22 23 24 25 26 27 28 29 30 31 32 33 34 35 36 37 38 39 40 41 42 43 44 45 46 47 48 49 50
000
ASUS43 KBIS 310902
RWRND

NORTH DAKOTA REGIONAL WEATHER ROUNDUP
NATIONAL WEATHER SERVICE BISMARCK ND
400 AM CDT MON AUG 31 2015

NOTE: "FAIR" INDICATES FEW OR NO CLOUDS BELOW 12,000 FEET WITH NO
SIGNIFICANT WEATHER AND/OR OBSTRUCTIONS TO VISIBILITY.


NDZ001>003-009>011-017-311000-
NORTHWEST NORTH DAKOTA

CITY           SKY/WX    TMP DP  RH WIND       PRES   REMARKS
WILLISTON      CLOUDY    63  56  78 NW14      29.73S
MINOT          CLOUDY    64  54  69 NW3       29.66F
MINOT AFB      CLOUDY    64  60  88 NW7       29.66F
$$

NDZ018>021-031>035-040>046-311000-
SOUTHWEST NORTH DAKOTA

CITY           SKY/WX    TMP DP  RH WIND       PRES   REMARKS
BISMARCK       CLOUDY    70  60  70 N12       29.63R HAZE
DICKINSON      CLOUDY    63  56  78 N9        29.71F
GARRISON         N/A     67  54  63 N10       29.63F
HETTINGER ARPT CLOUDY    66  50  56 NW13      29.76R
$$

NDZ004>008-012>016-024-026-027-054-311000-
NORTHEAST NORTH DAKOTA

CITY           SKY/WX    TMP DP  RH WIND       PRES   REMARKS
GRAND FORKS    CLEAR     67  63  87 S13       29.64S
GRND FRKS AFB  CLEAR     68  65  91 S9        29.64S
DEVILS LAKE    CLOUDY    70  63  78 CALM      29.62F
$$

NDZ022-023-025-028>030-036>039-047>053-311000-
SOUTHEAST NORTH DAKOTA

CITY           SKY/WX    TMP DP  RH WIND       PRES   REMARKS
FARGO          CLEAR     67  60  78 S16G24    29.68F
JAMESTOWN      PTCLDY    67  64  90 S18       29.62F
$$



USA.gov is the U.S. government's official web portal to all federal, state and local government web resources and services.